Location: Unspecified
(0.0000°N, 0.0000°E)
Time: 00:33:16
(UTC+00:00)

Envisat - Pass Details

Date: 20 June 2017
Orbit: 764 x 766 km, 98.2° (Epoch: 19 August)

Event Time Altitude Azimuth Distance (km) Brightness Sun altitude
Exits shadow 20:49:36 21° 331° (NNW) 1,664 5.2 -37.8°
Drops below altitude 10° 20:51:16 10° 337° (NNW) 2,293 6.0 -38.2°
Sets 20:53:36 0° 341° (NNW) 3,217 6.8 -38.7°
